This is the latest recevied weather packets stored in our database for station/object PY2SDN-13. If no packets are shown the sender has not sent any weather packets the latest 10 day(s).
| Time | Temp. | Humidity | Pressure | Rain* | Wind** | Luminosity | Snow |
|---|---|---|---|---|---|---|---|
| 1777726804 | 30.56° C | 26% | 1015.6 hPa | 0 mm | - | 0 W/m² | - |
| 1777725904 | 31.11° C | 26% | 1015.6 hPa | 0 mm | - | 0 W/m² | - |
| 1777725004 | 31.67° C | 26% | 1015.4 hPa | 0 mm | - | 0 W/m² | - |
| 1777724104 | 31.67° C | 26% | 1015.5 hPa | 0 mm | - | 0 W/m² | - |
| 1777723204 | 31.67° C | 26% | 1015.3 hPa | 0 mm | - | 0 W/m² | - |
| 1777722304 | 31.67° C | 26% | 1015.4 hPa | 0 mm | - | 0 W/m² | - |
| 1777721404 | 30° C | 26% | 1015.2 hPa | 0 mm | - | 0 W/m² | - |
| 1777720504 | 27.78° C | 26% | 1015.3 hPa | 0 mm | - | 0 W/m² | - |
| 1777719604 | 26.67° C | 26% | 1015.3 hPa | 0 mm | - | 0 W/m² | - |
| 1777718704 | 24.44° C | 26% | 1015.2 hPa | 0 mm | - | 0 W/m² | - |
| 1777717804 | 23.33° C | 26% | 1015.2 hPa | 0 mm | - | 0 W/m² | - |
| 1777716904 | 22.78° C | 26% | 1014.9 hPa | 0 mm | - | 0 W/m² | - |
| 1777716004 | 22.22° C | 26% | 1014.7 hPa | 0 mm | - | 0 W/m² | - |
| 1777715104 | 21.67° C | 26% | 1014.5 hPa | 0 mm | - | 0 W/m² | - |
| 1777714204 | 21.67° C | 26% | 1014.4 hPa | 0 mm | - | 0 W/m² | - |
| 1777713304 | 21.67° C | 26% | 1014.1 hPa | 0 mm | - | 0 W/m² | - |
| 1777712403 | 21.67° C | 26% | 1013.8 hPa | 0 mm | - | 0 W/m² | - |
| 1777711503 | 21.67° C | 26% | 1013.7 hPa | 0 mm | - | 0 W/m² | - |
| 1777710603 | 21.11° C | 26% | 1013.5 hPa | 0 mm | - | 0 W/m² | - |
| 1777709703 | 21.11° C | 26% | 1013.1 hPa | 0 mm | - | 0 W/m² | - |
| 1777708803 | 21.67° C | 26% | 1012.9 hPa | 0 mm | - | 0 W/m² | - |
| 1777707903 | 21.67° C | 26% | 1012.8 hPa | 0 mm | - | 0 W/m² | - |
| 1777707003 | 21.67° C | 26% | 1013 hPa | 0 mm | - | 0 W/m² | - |
| 1777706103 | 21.67° C | 26% | 1013 hPa | 0 mm | - | 0 W/m² | - |
| 1777705203 | 21.67° C | 26% | 1013.3 hPa | 0 mm | - | 0 W/m² | - |
* Rain latest hour (hover to see other rain measurements)
** Current wind speed in m/s (hover to see current wind gust speed)